Weather observations for the past three days for
Lawrence, Lawrence Municipal Airport
Imperial (Metric)
Date Time (cdt) Wind (mph) Vis. (mi.) Weather Sky Cond. Temperature (ºF) Relative Humidity Wind Chill (°F) Heat Index (°F) Pressure Precipitation (in)
Air Dwpt 6 hour altimeter (in) sea level (mb) 1 hr 3 hr 6 hr
Max. Min.
22 19:52 SW 9 10.00 Partly Cloudy SCT080 91.9 75.9 60% 104 29.77 1007.2
22 18:52 S 9 10.00 Mostly Cloudy BKN085 BKN110 93 75 96.1 91 56% 104 29.78 1007.2
22 17:52 SW 10 10.00 A Few Clouds FEW080 95 75.9 54% 108 29.79 1007.7
22 16:52 SW 9 G 18 10.00 A Few Clouds FEW065 96.1 73.9 49% 107 29.8 1008.0
22 15:52 SW 16 G 29 10.00 Partly Cloudy SCT060 SCT075 SCT085 95 73.9 51% 106 29.81 1008.4
22 14:52 SW 24 G 37 10.00 Fair and Breezy CLR 93.9 73 51% 103 29.82 1008.8
22 13:52 SW 21 G 28 10.00 Fair and Breezy CLR 93.9 73 51% 103 29.84 1009.4
22 12:52 S 15 G 35 10.00 Fair CLR 91 72 93 79 54% 99 29.85 1009.9
22 11:52 SW 16 G 29 10.00 Fair CLR 91 72 54% 99 29.87 1010.5
22 10:52 S 18 G 35 10.00 Fair CLR 89.1 71.1 55% 95 29.88 1010.8
22 09:52 S 12 10.00 Fair CLR 82.9 70 65% 87 29.91 1011.8
22 08:52 S 10 10.00 Fair CLR 81 68 65% 84 29.92 1012.2
22 07:52 S 10 10.00 Fair CLR 80.1 66.9 64% 82 29.93 1012.3
22 06:52 S 9 G 18 10.00 A Few Clouds FEW095 79 66 81 78.1 65% 81 29.94 1012.7
22 05:52 S 8 10.00 A Few Clouds FEW110 79 66 65% 81 29.95 1013.0
22 04:52 S 12 10.00 Mostly Cloudy SCT075 BKN095 79 66 65% 81 29.95 1013.3
22 03:52 S 10 G 21 10.00 A Few Clouds FEW100 80.1 64.9 60% 82 29.97 1013.9
22 02:52 S 10 G 18 10.00 Fair CLR 80.1 66 62% 82 29.99 1014.4
22 01:52 S 9 10.00 Fair CLR 81 66.9 62% 83 30 1014.8
22 00:52 S 10 10.00 Fair CLR 81 68 90 79 65% 84 30.01 1015.2
21 23:52 S 9 10.00 Fair CLR 81 69.1 67% 84 30.01 1015.3
21 21:52 S 8 10.00 Fair CLR 82 70 67% 86 30 1014.9
21 20:52 S 7 9.00 Fair CLR 82.9 71.1 67% 88 29.99 1014.7
21 19:52 S 8 10.00 Fair CLR 88 71.1 57% 94 30 1015.0
21 18:52 S 8 10.00 Fair CLR 90 72 91.9 86 56% 97 30.01 1015.1
21 17:52 S 16 10.00 Fair CLR 91.9 70 49% 98 30.02 1015.7
21 16:52 S 15 G 21 10.00 A Few Clouds FEW050 FEW070 91 72 54% 99 30.05 1016.6
21 15:52 S 13 G 20 10.00 A Few Clouds FEW100 91.9 73 54% 101 30.07 1017.2
21 14:52 SW 15 G 23 10.00 Partly Cloudy FEW041 SCT055 91.9 73.9 56% 102 30.09 1018.2
21 13:52 S 10 G 20 10.00 A Few Clouds FEW037 FEW060 90 73.9 59% 99 30.11 1018.8
21 12:52 SW 12 10.00 Mostly Cloudy BKN032 87.1 73.9 88 75 65% 95 30.13 1019.4
21 11:52 S 10 10.00 A Few Clouds FEW028 FEW033 86 73.9 67% 94 30.15 1020.1
21 10:52 S 13 10.00 Mostly Cloudy FEW028 BKN080 86 73.9 67% 94 30.16 1020.4
21 09:52 SW 10 10.00 Fair CLR 84.9 73 68% 92 30.16 1020.5
21 08:52 S 7 9.00 Fair CLR 81 72 74% 85 30.18 1021.0
21 07:52 SE 3 8.00 Fair CLR 77 72 85% 78 30.18 1021.2
21 06:52 E 3 7.00 Fair CLR 73.9 71.1 75 73 91% 30.18 1021.0
21 05:52 SE 5 8.00 Fair CLR 73 70 90% 30.17 1020.8
21 04:52 E 5 9.00 Fair CLR 73 70 90% 30.17 1020.7
21 03:52 E 3 9.00 Fair CLR 73.9 70 88% 30.17 1020.8
21 02:52 SE 5 9.00 Fair CLR 73.9 71.1 91% 30.18 1021.1
21 01:52 SE 3 9.00 Fair CLR 73.9 70 88% 30.19 1021.3
21 00:52 SE 5 9.00 Fair CLR 73 70 89.1 73 90% 30.19 1021.4
20 23:52 SE 3 10.00 Fair CLR 73.9 71.1 91% 30.18 1021.1
20 22:52 SE 5 10.00 Fair CLR 75.9 71.1 85% 76 30.17 1020.8
20 21:52 E 5 10.00 Fair CLR 78.1 71.1 79% 80 30.16 1020.3
20 20:52 SE 5 9.00 Fair CLR 80.1 73 79% 84 30.15 1020.0
20 19:52 SE 6 10.00 Fair CLR 86 72 63% 92 30.14 1019.7
20 18:52 S 8 10.00 Fair CLR 89.1 71.1 93 88 55% 95 30.14 1019.8
20 17:52 S 14 10.00 A Few Clouds FEW049 90 70 52% 95 30.16 1020.2
20 16:52 S 13 10.00 A Few Clouds FEW050 FEW060 91 71.1 52% 98 30.18 1020.9
20 15:52 S 9 10.00 A Few Clouds FEW047 91 72 54% 99 30.2 1021.6
20 14:52 SE 6 10.00 A Few Clouds FEW045 91 72 54% 99 30.21 1022.2
20 13:52 S 7 10.00 Fair CLR 90 72 56% 97 30.23 1022.8
20 12:52 Vrbl 3 10.00 A Few Clouds FEW036 FEW060 88 73 89.1 75 61% 96 30.25 1023.3
20 11:52 SW 7 10.00 Partly Cloudy SCT028 87.1 73.9 65% 95 30.25 1023.5
20 10:52 SW 8 9.00 Fair CLR 84 73 70% 90 30.25 1023.7
20 09:52 S 6 9.00 Fair CLR 81 73 77% 86 30.25 1023.7
20 08:52 SE 5 7.00 A Few Clouds FEW007 77 72 85% 78 30.25 1023.6
20 07:52 SE 6 5.00 Fog/Mist BKN006 75 72 90% 74 30.24 1023.4
20 06:52 E 5 3.00 Fog/Mist OVC006 73.9 72 73.9 73 94% 30.24 1023.1
20 05:52 NE 5 0.75 Fog/Mist VV002 73 73 100% 30.23 1023.0
20 04:52 E 5 0.75 Fog/Mist OVC002 73 72 96% 30.21 1022.4
20 03:52 Calm 5.00 Fog/Mist OVC003 73 72 96% 30.21 1022.4
20 02:52 E 3 6.00 Fog/Mist OVC005 73 71.1 94% 30.2 1022.1
20 01:52 Calm 8.00 Partly Cloudy SCT006 73 71.1 94% 30.21 1022.3
20 00:52 N 3 7.00 Overcast FEW012 OVC110 73 71.1 75.9 73 94% 30.21 1022.5 0.22
19 23:52 Calm 9.00 Light Rain FEW060 OVC110 73 72 96% 30.21 1022.3 0.01
19 22:52 NW 3 9.00 Light Rain FEW008 SCT048 BKN065 73 71.1 94% 30.2 1022.2
19 21:52 NW 7 10.00 Overcast FEW006 BKN055 OVC110 73 72 96% 30.2 1021.9 0.19 0.21
19 20:52 E 3 10.00 Light Rain SCT007 BKN010 OVC060 73.9 71.1 91% 30.19 1021.5 0.02
Date Time (cdt) Wind (mph) Vis. (mi.) Weather Sky Cond. Air Dwpt Max. Min. Relative Humidity Wind Chill (°F) Heat Index (°F) altimeter (in) sea level (mb) 1 hr 3 hr 6 hr
6 hour
Temperature (ºF) Pressure Precipitation (in)